Torna al catalogo

SL-6 R/B(2)

AttivoHEO
NORAD 14894·ROCKET BODY·🇷🇺 Russia

Lanciato Apr 4, 1984 da Plesetsk Cosmodrome

Loading…

Prossimi Passaggi (prossime 24 ore)

TLE

AggiornatoSource: Space-Track

Epoca: Sep 14, 2026, 04:45 UTC

1 14894U 84033D   26257.19793822 -.00000265  00000-0  00000-0 0  9991
2 14894  70.8128 278.7194 5788689 216.9038  84.0664  2.03827059255042

Traccia SL-6 R/B(2) in tempo reale con AllMySat

Download on the App Store